C/2022 R2 ( ATLAS )

Japanese version
Home page
Updated on April 15, 2023

---------------------------------------------------------------------

* Profile

Discovery Date September 14, 2022
Magnitude 17.6 mag
Discoverer Asteroid Terrestrial-Impact Last Alert System (ATLAS) search program

* Pictures

* Orbital Elements

Epoch 2023 Feb. 25.0 TT = JDT 2460000.5
T 2022 Oct. 25.22024 TT                                 Rudenko
q   0.6325576            (2000.0)            P               Q
z  +0.0023757      Peri.   78.37540     -0.41427167     -0.58945593
 +/-0.0000446      Node    60.40339     +0.11776348     -0.79025266
e   0.9984972      Incl.   52.89628     +0.90250249     -0.16745881
>From 298 observations 2022 Sept. 14-Oct. 30, mean residual 0".7.

* Finding Charts

* Magnitudes Graph

        m1 = 15.0 + 5 log d + 10.0 log r

---------------------------------------------------------------------

The orbital elements are published on M.P.E.C. 2022-Y15.
The charts are made with StellaNavigator Ver.10 (AstroArts).
The magnitudes graphs are made with Comet for Windows.

---------------------------------------------------------------------

Copyright(C) Seiichi Yoshida (comet@aerith.net). All rights reserved.